QPF
0.02 0.02 0.02 0.01 0.01 0.01 0.01 0.01 0.01 0.02 0.02 0.02 0.02 0.02 0.02 0.01 0.01 0.00 0.00 0.00 0.00 0.01 0.02 0.01 0.01 0.01 0.01 0.02 0.03 0.04 0.05 0.03 0.02 0.01 0.01 0.01 0.01 0.02 0.02 0.02 0.01 0.02 0.02
0.00 0.00 0.01 0.01 0.00 0.00 0.00 0.00 0.01 0.01 0.01 0.01 0.02 0.02 0.03 0.03 0.03 0.01 0.00 0.00 0.00 0.00 0.01 0.01 0.01 0.01 0.01 0.01 0.02 0.03 0.04 0.06 0.04 0.03 0.02 0.02 0.01 0.01 0.02 0.02 0.02 0.02 0.02
0.00 0.00 0.00 0.00 0.00 0.00 0.00 0.00 0.00 0.00 0.01 0.01 0.01 0.02 0.02 0.03 0.04 0.02 0.01 0.01 0.01 0.01 0.02 0.01 0.00 0.00 0.01 0.02 0.02 0.03 0.03 0.05 0.05 0.03 0.02 0.02 0.01 0.01 0.01 0.02 0.02 0.02 0.02
0.01 0.01 0.01 0.00 0.00 0.00 0.00 0.00 0.00 0.00 0.00 0.00 0.01 0.01 0.02 0.02 0.03 0.03 0.02 0.02 0.01 0.01 0.02 0.02 0.01 0.01 0.01 0.02 0.03 0.04 0.04 0.03 0.04 0.04 0.02 0.01 0.01 0.01 0.02 0.02 0.02 0.02 0.02
0.02 0.02 0.01 0.01 0.01 0.01 0.00 0.00 0.00 0.00 0.00 0.00 0.00 0.00 0.00 0.01 0.01 0.01 0.01 0.01 0.01 0.01 0.02 0.02 0.01 0.01 0.01 0.01 0.02 0.03 0.04 0.04 0.04 0.03 0.03 0.02 0.02 0.02 0.02 0.02 0.02 0.02 0.02
0.02 0.02 0.01 0.01 0.01 0.00 0.00 0.00 0.00 0.00 0.00 0.00 0.00 0.00 0.00 0.01 0.01 0.01 0.00 0.00 0.00 0.01 0.01 0.01 0.01 0.01 0.00 0.01 0.01 0.02 0.03 0.04 0.04 0.03 0.02 0.02 0.02 0.02 0.02 0.02 0.02 0.02 0.02
0.02 0.02 0.01 0.01 0.00 0.00 0.00 0.00 0.00 0.00 0.00 0.00 0.00 0.00 0.00 0.01 0.01 0.01 0.01 0.01 0.00 0.00 0.01 0.01 0.01 0.00 0.00 0.00 0.01 0.01 0.02 0.03 0.04 0.04 0.03 0.03 0.03 0.03 0.03 0.03 0.02 0.02 0.02
0.03 0.02 0.02 0.02 0.01 0.00 0.00 0.00 0.01 0.00 0.00 0.00 0.00 0.01 0.01 0.01 0.01 0.01 0.01 0.01 0.01 0.01 0.01 0.01 0.01 0.01 0.00 0.00 0.01 0.01 0.03 0.03 0.03 0.04 0.04 0.03 0.03 0.03 0.03 0.03 0.02 0.02 0.02
0.12 0.06 0.02 0.02 0.01 0.01 0.00 0.00 0.00 0.00 0.01 0.00 0.01 0.01 0.01 0.01 0.01 0.01 0.01 0.02 0.01 0.01 0.01 0.01 0.01 0.00 0.00 0.00 0.01 0.02 0.03 0.05 0.04 0.03 0.03 0.04 0.03 0.03 0.03 0.03 0.03 0.03 0.03
0.12 0.13 0.09 0.05 0.02 0.01 0.01 0.01 0.00 0.00 0.01 0.01 0.01 0.01 0.01 0.01 0.01 0.01 0.01 0.01 0.02 0.02 0.02 0.01 0.01 0.01 0.00 0.00 0.01 0.01 0.02 0.03 0.04 0.03 0.02 0.03 0.03 0.03 0.03 0.03 0.03 0.04 0.04
0.05 0.09 0.11 0.11 0.08 0.04 0.01 0.01 0.01 0.00 0.00 0.00 0.01 0.01 0.01 0.01 0.01 0.01 0.01 0.01 0.02 0.03 0.02 0.02 0.01 0.01 0.01 0.01 0.01 0.01 0.02 0.02 0.03 0.03 0.02 0.02 0.03 0.03 0.03 0.03 0.03 0.03 0.04
0.01 0.03 0.05 0.07 0.09 0.09 0.06 0.03 0.01 0.01 0.01 0.00 0.00 0.01 0.01 0.01 0.01 0.01 0.01 0.01 0.01 0.03 0.04 0.04 0.03 0.03 0.02 0.01 0.01 0.02 0.02 0.02 0.02 0.03 0.02 0.01 0.01 0.01 0.01 0.01 0.02 0.02 0.02
0.00 0.00 0.01 0.02 0.03 0.05 0.08 0.08 0.06 0.03 0.02 0.01 0.01 0.01 0.01 0.01 0.01 0.01 0.01 0.01 0.01 0.01 0.03 0.04 0.04 0.03 0.03 0.02 0.01 0.02 0.02 0.02 0.02 0.03 0.02 0.02 0.01 0.01 0.01 0.01 0.01 0.02 0.02
0.00 0.00 0.00 0.00 0.01 0.02 0.03 0.05 0.08 0.07 0.05 0.03 0.02 0.02 0.01 0.01 0.01 0.01 0.01 0.01 0.01 0.01 0.01 0.03 0.04 0.04 0.04 0.03 0.03 0.02 0.02 0.03 0.02 0.02 0.02 0.01 0.01 0.01 0.01 0.01 0.01 0.01 0.02
0.00 0.00 0.00 0.00 0.00 0.01 0.01 0.02 0.03 0.05 0.07 0.07 0.06 0.05 0.04 0.03 0.02 0.01 0.01 0.02 0.02 0.02 0.02 0.02 0.03 0.04 0.05 0.05 0.04 0.03 0.02 0.03 0.02 0.01 0.01 0.01 0.01 0.01 0.01 0.01 0.01 0.01 0.01
0.00 0.00 0.00 0.00 0.00 0.00 0.00 0.01 0.01 0.02 0.04 0.06 0.06 0.06 0.05 0.04 0.04 0.03 0.03 0.02 0.02 0.02 0.02 0.02 0.02 0.03 0.04 0.05 0.05 0.04 0.04 0.04 0.02 0.01 0.01 0.01 0.01 0.01 0.01 0.01 0.01 0.01 0.01
0.00 0.00 0.00 0.00 0.00 0.00 0.00 0.00 0.00 0.01 0.01 0.02 0.02 0.03 0.03 0.03 0.03 0.03 0.03 0.03 0.02 0.02 0.02 0.02 0.02 0.04 0.04 0.04 0.05 0.05 0.04 0.03 0.02 0.02 0.02 0.02 0.02 0.02 0.01 0.01 0.01 0.02 0.02
0.01 0.00 0.00 0.00 0.00 0.00 0.00 0.00 0.00 0.00 0.00 0.01 0.01 0.01 0.01 0.01 0.02 0.02 0.03 0.03 0.02 0.02 0.02 0.02 0.02 0.04 0.05 0.05 0.04 0.03 0.04 0.03 0.03 0.02 0.02 0.02 0.02 0.02 0.01 0.01 0.01 0.01 0.01
0.02 0.02 0.01 0.00 0.00 0.00 0.00 0.00 0.01 0.01 0.00 0.00 0.00 0.00 0.00 0.01 0.01 0.01 0.01 0.02 0.02 0.02 0.02 0.03 0.03 0.03 0.04 0.05 0.05 0.04 0.04 0.03 0.03 0.02 0.02 0.02 0.02 0.02 0.02 0.01 0.01 0.01 0.01
0.01 0.02 0.02 0.01 0.00 0.00 0.00 0.00 0.00 0.00 0.01 0.01 0.00 0.00 0.00 0.00 0.00 0.01 0.01 0.01 0.01 0.01 0.02 0.03 0.03 0.03 0.03 0.04 0.05 0.05 0.04 0.04 0.03 0.02 0.01 0.01 0.01 0.01 0.02 0.02 0.01 0.01 0.01
0.01 0.01 0.02 0.02 0.01 0.00 0.00 0.00 0.01 0.00 0.00 0.00 0.00 0.00 0.00 0.01 0.01 0.01 0.01 0.01 0.01 0.02 0.02 0.02 0.03 0.03 0.03 0.03 0.03 0.04 0.04 0.03 0.03 0.02 0.01 0.01 0.01 0.01 0.02 0.03 0.03 0.02 0.02
0.01 0.01 0.01 0.02 0.01 0.01 0.00 0.01 0.01 0.01 0.00 0.00 0.00 0.00 0.00 0.01 0.01 0.01 0.01 0.01 0.01 0.02 0.02 0.02 0.02 0.02 0.02 0.01 0.01 0.02 0.02 0.02 0.03 0.02 0.01 0.01 0.01 0.01 0.02 0.02 0.03 0.03 0.03
0.02 0.02 0.01 0.01 0.01 0.01 0.00 0.01 0.01 0.01 0.00 0.00 0.00 0.00 0.01 0.01 0.01 0.01 0.01 0.01 0.01 0.02 0.02 0.02 0.02 0.01 0.01 0.01 0.01 0.02 0.02 0.02 0.02 0.02 0.02 0.01 0.01 0.01 0.02 0.02 0.03 0.03 0.04
0.02 0.03 0.03 0.02 0.01 0.01 0.01 0.01 0.01 0.01 0.01 0.01 0.01 0.01 0.01 0.01 0.01 0.01 0.01 0.01 0.01 0.01 0.01 0.02 0.02 0.01 0.01 0.01 0.01 0.02 0.02 0.03 0.03 0.03 0.02 0.02 0.01 0.01 0.02 0.03 0.03 0.04 0.05
0.03 0.02 0.02 0.02 0.02 0.01 0.01 0.01 0.01 0.01 0.00 0.00 0.01 0.01 0.01 0.01 0.02 0.02 0.02 0.01 0.01 0.01 0.01 0.01 0.01 0.02 0.02 0.02 0.02 0.02 0.03 0.03 0.03 0.03 0.02 0.02 0.02 0.02 0.02 0.03 0.04 0.08 0.07
0.02 0.02 0.02 0.01 0.01 0.01 0.01 0.01 0.02 0.01 0.01 0.00 0.01 0.01 0.01 0.01 0.02 0.02 0.01 0.01 0.01 0.01 0.01 0.01 0.01 0.02 0.02 0.03 0.04 0.03 0.04 0.04 0.03 0.02 0.01 0.01 0.02 0.03 0.04 0.05 0.06 0.10 0.07
MSLP
1018.18 1018.11 1017.94 1017.68 1017.34 1016.94 1016.51 1016.05 1015.60 1015.19 1014.82 1014.53 1014.34 1014.25 1014.28 1014.42 1014.65 1014.96 1015.30 1015.67 1016.02 1016.37 1016.70 1017.04 1017.39 1017.77 1018.19 1018.65 1019.13 1019.62 1020.08 1020.49 1020.84 1021.12 1021.33 1021.48 1021.59 1021.66 1021.70 1021.71 1021.68 1021.60 1021.46
1018.20 1018.12 1017.96 1017.74 1017.44 1017.09 1016.69 1016.26 1015.81 1015.38 1014.99 1014.66 1014.43 1014.31 1014.31 1014.42 1014.64 1014.93 1015.27 1015.63 1015.99 1016.34 1016.68 1017.02 1017.38 1017.77 1018.20 1018.67 1019.16 1019.66 1020.14 1020.58 1020.96 1021.27 1021.52 1021.71 1021.86 1021.96 1022.02 1022.04 1022.00 1021.91 1021.76
1018.16 1018.08 1017.96 1017.78 1017.55 1017.26 1016.91 1016.51 1016.08 1015.64 1015.23 1014.87 1014.59 1014.42 1014.37 1014.44 1014.62 1014.89 1015.21 1015.56 1015.91 1016.27 1016.62 1016.98 1017.36 1017.77 1018.22 1018.71 1019.21 1019.72 1020.20 1020.65 1021.05 1021.39 1021.67 1021.90 1022.07 1022.20 1022.28 1022.31 1022.28 1022.19 1022.03
1018.11 1018.05 1017.97 1017.85 1017.69 1017.47 1017.18 1016.83 1016.42 1015.98 1015.54 1015.14 1014.82 1014.59 1014.48 1014.49 1014.62 1014.84 1015.12 1015.44 1015.79 1016.15 1016.52 1016.90 1017.32 1017.77 1018.25 1018.76 1019.28 1019.80 1020.29 1020.74 1021.14 1021.49 1021.79 1022.03 1022.23 1022.38 1022.48 1022.53 1022.51 1022.42 1022.27
1018.09 1018.05 1018.01 1017.96 1017.88 1017.73 1017.51 1017.21 1016.83 1016.39 1015.93 1015.49 1015.12 1014.83 1014.65 1014.59 1014.64 1014.80 1015.02 1015.30 1015.63 1015.98 1016.37 1016.78 1017.24 1017.73 1018.26 1018.80 1019.35 1019.88 1020.38 1020.83 1021.23 1021.57 1021.87 1022.12 1022.33 1022.50 1022.62 1022.68 1022.68 1022.61 1022.47
1018.09 1018.09 1018.10 1018.12 1018.11 1018.04 1017.88 1017.63 1017.28 1016.85 1016.39 1015.92 1015.50 1015.16 1014.91 1014.78 1014.75 1014.82 1014.97 1015.18 1015.46 1015.79 1016.18 1016.62 1017.11 1017.66 1018.23 1018.82 1019.40 1019.95 1020.46 1020.91 1021.30 1021.63 1021.93 1022.18 1022.40 1022.58 1022.72 1022.80 1022.82 1022.77 1022.65
1018.12 1018.16 1018.23 1018.31 1018.36 1018.36 1018.26 1018.06 1017.74 1017.34 1016.89 1016.42 1015.98 1015.60 1015.30 1015.09 1014.97 1014.95 1015.00 1015.13 1015.33 1015.61 1015.97 1016.42 1016.93 1017.52 1018.14 1018.78 1019.40 1019.98 1020.50 1020.96 1021.34 1021.68 1021.97 1022.22 1022.45 1022.65 1022.80 1022.91 1022.95 1022.92 1022.82
1018.16 1018.24 1018.36 1018.50 1018.61 1018.66 1018.62 1018.46 1018.20 1017.84 1017.42 1016.98 1016.55 1016.16 1015.83 1015.57 1015.37 1015.24 1015.18 1015.20 1015.30 1015.49 1015.79 1016.20 1016.71 1017.32 1017.97 1018.65 1019.31 1019.93 1020.48 1020.96 1021.35 1021.70 1021.99 1022.26 1022.50 1022.72 1022.89 1023.02 1023.09 1023.08 1023.01
1018.16 1018.29 1018.46 1018.64 1018.80 1018.90 1018.91 1018.81 1018.60 1018.31 1017.96 1017.58 1017.20 1016.85 1016.52 1016.22 1015.95 1015.73 1015.55 1015.42 1015.39 1015.46 1015.66 1016.00 1016.47 1017.06 1017.73 1018.44 1019.14 1019.80 1020.39 1020.90 1021.33 1021.69 1022.01 1022.30 1022.57 1022.81 1023.01 1023.17 1023.26 1023.29 1023.24
1018.10 1018.28 1018.50 1018.72 1018.92 1019.05 1019.10 1019.06 1018.93 1018.72 1018.47 1018.19 1017.90 1017.61 1017.31 1017.01 1016.70 1016.39 1016.09 1015.82 1015.63 1015.55 1015.62 1015.85 1016.25 1016.80 1017.46 1018.18 1018.91 1019.61 1020.24 1020.80 1021.28 1021.68 1022.04 1022.37 1022.66 1022.93 1023.17 1023.36 1023.48 1023.53 1023.51
1017.97 1018.20 1018.45 1018.71 1018.93 1019.10 1019.19 1019.21 1019.15 1019.05 1018.91 1018.75 1018.58 1018.39 1018.16 1017.89 1017.56 1017.18 1016.77 1016.37 1016.03 1015.79 1015.70 1015.80 1016.10 1016.58 1017.20 1017.91 1018.66 1019.40 1020.08 1020.69 1021.23 1021.69 1022.10 1022.47 1022.80 1023.11 1023.37 1023.59 1023.73 1023.81 1023.81
1017.76 1018.03 1018.32 1018.60 1018.84 1019.03 1019.16 1019.24 1019.27 1019.27 1019.25 1019.23 1019.19 1019.12 1018.99 1018.77 1018.45 1018.04 1017.55 1017.03 1016.54 1016.15 1015.92 1015.88 1016.06 1016.45 1017.02 1017.71 1018.47 1019.23 1019.96 1020.64 1021.23 1021.75 1022.21 1022.63 1023.00 1023.33 1023.62 1023.85 1024.01 1024.10 1024.12
1017.47 1017.78 1018.09 1018.39 1018.65 1018.87 1019.04 1019.17 1019.27 1019.37 1019.47 1019.58 1019.68 1019.73 1019.70 1019.56 1019.28 1018.86 1018.33 1017.73 1017.14 1016.62 1016.26 1016.09 1016.16 1016.47 1016.97 1017.63 1018.38 1019.17 1019.95 1020.67 1021.32 1021.90 1022.42 1022.87 1023.26 1023.61 1023.91 1024.14 1024.30 1024.40 1024.42
1017.09 1017.44 1017.78 1018.10 1018.39 1018.63 1018.83 1019.00 1019.17 1019.35 1019.56 1019.78 1019.99 1020.16 1020.24 1020.18 1019.96 1019.57 1019.04 1018.40 1017.75 1017.16 1016.70 1016.44 1016.42 1016.64 1017.09 1017.72 1018.46 1019.27 1020.08 1020.84 1021.55 1022.18 1022.73 1023.21 1023.62 1023.96 1024.24 1024.46 1024.61 1024.69 1024.71
1016.65 1017.03 1017.40 1017.74 1018.05 1018.31 1018.54 1018.75 1018.97 1019.21 1019.49 1019.80 1020.11 1020.37 1020.55 1020.58 1020.44 1020.10 1019.60 1018.99 1018.33 1017.70 1017.20 1016.88 1016.80 1016.97 1017.38 1017.98 1018.71 1019.53 1020.36 1021.17 1021.92 1022.59 1023.17 1023.66 1024.06 1024.39 1024.64 1024.82 1024.94 1024.99 1024.99
1016.16 1016.56 1016.95 1017.32 1017.65 1017.93 1018.19 1018.43 1018.68 1018.96 1019.29 1019.65 1020.02 1020.36 1020.61 1020.72 1020.67 1020.41 1019.98 1019.43 1018.81 1018.21 1017.71 1017.38 1017.27 1017.41 1017.79 1018.37 1019.10 1019.92 1020.78 1021.63 1022.41 1023.11 1023.72 1024.21 1024.60 1024.90 1025.11 1025.24 1025.29 1025.30 1025.27
1015.62 1016.03 1016.45 1016.84 1017.19 1017.50 1017.78 1018.04 1018.31 1018.61 1018.96 1019.35 1019.75 1020.13 1020.44 1020.62 1020.64 1020.48 1020.15 1019.68 1019.15 1018.61 1018.15 1017.85 1017.75 1017.89 1018.25 1018.82 1019.56 1020.39 1021.28 1022.15 1022.98 1023.71 1024.34 1024.84 1025.22 1025.48 1025.64 1025.70 1025.70 1025.64 1025.57
1015.06 1015.47 1015.90 1016.31 1016.68 1017.02 1017.31 1017.59 1017.87 1018.17 1018.52 1018.91 1019.32 1019.73 1020.07 1020.31 1020.41 1020.35 1020.12 1019.76 1019.32 1018.88 1018.49 1018.23 1018.16 1018.31 1018.68 1019.25 1019.99 1020.84 1021.75 1022.67 1023.53 1024.31 1024.96 1025.48 1025.86 1026.09 1026.20 1026.21 1026.14 1026.03 1025.89
1014.49 1014.89 1015.32 1015.74 1016.13 1016.48 1016.79 1017.08 1017.36 1017.66 1018.00 1018.38 1018.79 1019.20 1019.56 1019.85 1020.02 1020.04 1019.91 1019.67 1019.34 1018.99 1018.68 1018.48 1018.45 1018.61 1018.99 1019.56 1020.30 1021.17 1022.12 1023.07 1023.99 1024.81 1025.52 1026.07 1026.46 1026.69 1026.77 1026.74 1026.61 1026.44 1026.26
1013.92 1014.30 1014.72 1015.14 1015.54 1015.90 1016.22 1016.52 1016.80 1017.09 1017.42 1017.78 1018.17 1018.58 1018.96 1019.28 1019.51 1019.60 1019.57 1019.43 1019.20 1018.95 1018.72 1018.57 1018.57 1018.75 1019.12 1019.70 1020.44 1021.32 1022.29 1023.29 1024.27 1025.15 1025.92 1026.52 1026.95 1027.20 1027.29 1027.24 1027.09 1026.87 1026.64
1013.37 1013.72 1014.12 1014.52 1014.92 1015.28 1015.61 1015.91 1016.19 1016.47 1016.79 1017.13 1017.52 1017.92 1018.31 1018.65 1018.92 1019.09 1019.14 1019.08 1018.95 1018.77 1018.60 1018.50 1018.52 1018.71 1019.07 1019.63 1020.37 1021.26 1022.25 1023.29 1024.31 1025.27 1026.11 1026.79 1027.28 1027.59 1027.71 1027.67 1027.51 1027.28 1027.03
1012.84 1013.15 1013.52 1013.90 1014.28 1014.64 1014.96 1015.26 1015.53 1015.81 1016.12 1016.46 1016.83 1017.23 1017.63 1018.00 1018.31 1018.53 1018.65 1018.66 1018.60 1018.49 1018.37 1018.30 1018.33 1018.51 1018.86 1019.39 1020.11 1020.99 1021.98 1023.04 1024.12 1025.14 1026.06 1026.82 1027.40 1027.78 1027.97 1027.98 1027.86 1027.65 1027.39
1012.31 1012.59 1012.93 1013.28 1013.64 1013.98 1014.30 1014.58 1014.85 1015.13 1015.43 1015.76 1016.13 1016.53 1016.94 1017.33 1017.67 1017.94 1018.11 1018.19 1018.19 1018.13 1018.06 1018.01 1018.05 1018.21 1018.53 1019.03 1019.71 1020.56 1021.54 1022.61 1023.71 1024.78 1025.76 1026.61 1027.28 1027.76 1028.04 1028.14 1028.08 1027.92 1027.70
1011.76 1012.02 1012.33 1012.67 1013.00 1013.32 1013.61 1013.89 1014.15 1014.42 1014.72 1015.05 1015.42 1015.82 1016.24 1016.65 1017.03 1017.33 1017.56 1017.69 1017.74 1017.74 1017.70 1017.68 1017.72 1017.87 1018.16 1018.61 1019.24 1020.04 1020.99 1022.04 1023.14 1024.24 1025.27 1026.19 1026.95 1027.53 1027.91 1028.12 1028.16 1028.08 1027.93
1011.16 1011.42 1011.72 1012.04 1012.35 1012.65 1012.93 1013.19 1013.44 1013.71 1014.00 1014.33 1014.71 1015.11 1015.54 1015.97 1016.36 1016.71 1016.98 1017.17 1017.28 1017.32 1017.33 1017.34 1017.40 1017.54 1017.80 1018.22 1018.79 1019.53 1020.42 1021.42 1022.49 1023.58 1024.64 1025.60 1026.44 1027.11 1027.60 1027.93 1028.09 1028.12 1028.07
1010.49 1010.77 1011.08 1011.39 1011.69 1011.97 1012.24 1012.49 1012.74 1013.00 1013.29 1013.62 1014.00 1014.40 1014.84 1015.28 1015.69 1016.07 1016.38 1016.62 1016.79 1016.90 1016.97 1017.03 1017.11 1017.26 1017.51 1017.89 1018.41 1019.08 1019.90 1020.83 1021.84 1022.89 1023.93 1024.92 1025.80 1026.55 1027.15 1027.59 1027.88 1028.04 1028.10
Thickness
5630 5630 5630 5631 5631 5631 5631 5631 5630 5630 5630 5630 5630 5630 5629 5629 5629 5629 5630 5630 5631 5632 5632 5633 5633 5634 5634 5634 5634 5634 5634 5634 5634 5633 5633 5633 5632 5633 5632 5633 5633 5633 5633
5623 5622 5622 5623 5623 5623 5624 5623 5622 5622 5622 5621 5621 5622 5622 5621 5621 5621 5621 5621 5622 5622 5623 5624 5625 5625 5625 5625 5626 5626 5626 5626 5626 5626 5625 5625 5625 5625 5625 5625 5625 5626 5626
5616 5615 5615 5615 5615 5615 5615 5615 5614 5613 5613 5612 5612 5613 5613 5613 5613 5612 5612 5612 5612 5613 5613 5614 5614 5615 5616 5616 5617 5617 5618 5618 5618 5617 5617 5617 5617 5617 5617 5617 5617 5618 5618
5608 5608 5607 5607 5607 5607 5607 5606 5605 5604 5603 5603 5603 5603 5603 5604 5604 5604 5603 5604 5603 5603 5603 5603 5604 5605 5606 5606 5607 5608 5608 5608 5609 5608 5608 5609 5609 5609 5610 5609 5609 5609 5610
5601 5600 5599 5599 5599 5598 5598 5598 5596 5595 5594 5593 5593 5593 5593 5594 5594 5594 5594 5594 5594 5594 5593 5593 5593 5594 5595 5596 5597 5598 5598 5599 5599 5599 5599 5600 5600 5600 5601 5601 5601 5601 5601
5592 5592 5591 5591 5590 5589 5588 5588 5586 5585 5584 5583 5584 5583 5583 5584 5584 5584 5585 5585 5585 5584 5584 5584 5583 5583 5584 5586 5586 5587 5588 5589 5589 5590 5590 5590 5590 5591 5592 5592 5592 5592 5592
5585 5584 5583 5582 5581 5580 5579 5578 5577 5575 5574 5573 5572 5571 5572 5573 5574 5575 5575 5575 5575 5574 5574 5574 5574 5574 5574 5575 5575 5576 5577 5578 5579 5580 5580 5581 5581 5581 5582 5583 5583 5583 5584
5577 5576 5575 5574 5572 5571 5569 5568 5568 5565 5564 5563 5561 5560 5560 5561 5564 5565 5564 5564 5564 5564 5563 5563 5563 5564 5564 5564 5565 5565 5566 5567 5568 5570 5570 5571 5571 5572 5573 5573 5573 5574 5574
5568 5568 5567 5566 5564 5562 5561 5560 5559 5557 5554 5553 5552 5551 5549 5551 5550 5553 5553 5554 5553 5552 5553 5553 5553 5553 5553 5554 5554 5554 5555 5556 5557 5559 5559 5560 5561 5562 5563 5564 5564 5564 5564
5560 5559 5558 5557 5556 5554 5553 5551 5550 5548 5547 5543 5542 5541 5541 5540 5538 5540 5542 5542 5542 5542 5542 5542 5542 5542 5543 5543 5543 5544 5545 5545 5546 5547 5548 5549 5550 5551 5552 5553 5554 5554 5555
5552 5551 5550 5549 5547 5545 5544 5543 5541 5539 5538 5536 5533 5531 5530 5529 5528 5528 5530 5531 5531 5531 5531 5531 5531 5531 5532 5532 5532 5533 5533 5534 5535 5535 5536 5537 5538 5539 5540 5542 5542 5543 5544
5543 5542 5541 5540 5539 5537 5535 5534 5533 5531 5529 5527 5525 5523 5521 5520 5519 5517 5517 5517 5518 5520 5520 5520 5520 5520 5521 5521 5521 5521 5522 5523 5524 5524 5524 5526 5526 5527 5528 5530 5531 5531 5532
5534 5533 5532 5531 5530 5528 5527 5526 5524 5522 5520 5518 5516 5514 5513 5512 5511 5509 5507 5506 5506 5508 5509 5510 5510 5510 5510 5510 5510 5510 5511 5512 5513 5513 5514 5515 5515 5516 5517 5518 5519 5520 5521
5527 5525 5524 5523 5521 5520 5518 5517 5515 5513 5511 5509 5508 5506 5504 5502 5501 5500 5498 5496 5496 5497 5498 5500 5500 5500 5500 5500 5500 5500 5500 5501 5502 5503 5503 5504 5505 5505 5506 5507 5508 5509 5511
5519 5517 5515 5514 5512 5511 5509 5508 5506 5504 5502 5500 5498 5496 5495 5493 5492 5490 5489 5487 5486 5486 5488 5489 5489 5490 5489 5489 5489 5490 5490 5491 5491 5492 5493 5494 5495 5495 5496 5497 5498 5499 5500
5510 5508 5507 5505 5504 5502 5500 5499 5497 5496 5494 5492 5490 5487 5486 5484 5482 5480 5479 5477 5476 5475 5476 5479 5478 5479 5479 5479 5479 5480 5480 5480 5481 5482 5483 5484 5485 5486 5486 5487 5488 5489 5491
5501 5500 5499 5497 5495 5494 5492 5490 5489 5487 5485 5483 5481 5480 5478 5475 5473 5470 5468 5467 5465 5465 5465 5469 5468 5468 5468 5468 5469 5469 5470 5470 5471 5472 5474 5475 5476 5476 5477 5478 5479 5480 5481
5493 5491 5490 5488 5487 5485 5483 5482 5480 5478 5476 5475 5473 5471 5470 5468 5464 5462 5459 5457 5456 5456 5455 5457 5458 5458 5458 5458 5459 5459 5460 5460 5461 5463 5464 5465 5466 5467 5468 5469 5470 5471 5473
5484 5482 5480 5479 5478 5477 5475 5474 5472 5470 5469 5467 5465 5463 5462 5459 5456 5454 5451 5450 5448 5448 5447 5447 5449 5448 5448 5448 5448 5449 5450 5450 5452 5453 5454 5455 5456 5458 5459 5461 5462 5463 5464
5475 5473 5472 5470 5469 5469 5467 5466 5464 5462 5460 5459 5457 5456 5454 5452 5449 5446 5444 5442 5440 5439 5438 5438 5439 5439 5438 5438 5438 5439 5440 5441 5442 5444 5445 5446 5447 5449 5451 5452 5454 5456 5456
5466 5465 5463 5462 5461 5460 5459 5457 5456 5454 5452 5451 5449 5448 5446 5444 5442 5440 5438 5435 5433 5431 5430 5429 5429 5429 5429 5428 5428 5429 5430 5432 5433 5435 5436 5437 5439 5441 5442 5444 5446 5448 5449
5457 5456 5454 5453 5452 5452 5451 5449 5447 5445 5444 5442 5441 5440 5438 5436 5434 5433 5432 5430 5427 5425 5423 5422 5421 5421 5422 5421 5420 5420 5420 5422 5424 5426 5425 5428 5430 5432 5434 5436 5438 5439 5440
5448 5446 5445 5444 5443 5443 5442 5441 5439 5436 5435 5434 5433 5431 5430 5429 5427 5425 5423 5422 5420 5419 5418 5416 5414 5415 5415 5414 5413 5412 5411 5412 5414 5416 5416 5420 5421 5423 5426 5428 5430 5431 5433
5438 5437 5436 5435 5434 5434 5433 5431 5430 5428 5427 5426 5425 5424 5422 5421 5419 5417 5415 5413 5412 5412 5411 5410 5409 5409 5408 5406 5406 5405 5404 5404 5406 5407 5407 5409 5412 5414 5417 5419 5421 5424 5425
5429 5428 5427 5426 5425 5425 5424 5423 5422 5420 5419 5418 5417 5416 5414 5413 5413 5411 5408 5406 5406 5405 5404 5403 5402 5401 5400 5399 5398 5396 5395 5395 5397 5399 5399 5399 5402 5404 5408 5411 5412 5413 5415
5420 5419 5418 5417 5416 5416 5416 5415 5414 5413 5411 5410 5409 5408 5408 5407 5406 5404 5401 5400 5398 5398 5396 5395 5393 5393 5392 5391 5390 5389 5388 5387 5388 5390 5392 5390 5392 5393 5398 5402 5403 5404 5405